Weather Roundup
Issued by NWS

Home | Current Version | Previous Version | Graphics & Text | Print | Product List | Glossary Off
Versions: 1 2 3 4 5 6 7 8 9 10 11 12 13 14 15 16 17 18 19 20 21 22 23 24 25 26 27 28 29 30 31 32 33 34 35 36 37 38 39 40 41 42 43 44 45 46 47 48 49 50

395
NZUS93 KARX 271259
HRRWXR

CURRENT HOURLY OBSERVATIONS ACROSS
MUCH OF THE UPPER MISSISSIPPI VALLEY
NATIONAL WEATHER SERVICE LA CROSSE WI
800 AM CDT TUE SEP 27 2016


...SOUTHEAST MINNESOTA...


CITY           SKY/WX    TMP DP  RH WIND       PRES   REMARKS
ROCHESTER      CLEAR     47  39  74 W14G22    29.86R
ROCHESTER/MAYO FAIR      49  38  66 W16G24    29.84S
WINONA         CLEAR     50  37  62 NW12G18   29.81S
AUSTIN           N/A     46  37  71 W9        29.88S
ALBERT LEA     CLEAR     46  37  71 W6        29.90S
DODGE CENTER   PTCLDY    46  39  76 W13       29.86S
PRESTON        CLEAR     46  38  71 W14G21    29.86S
OWATONNA       CLEAR     45  39  81 W7        29.88S
FARIBAULT      CLEAR     48  39  71 W12       29.88S
$$

...ELSEWHERE IN MINNESOTA...


CITY           SKY/WX    TMP DP  RH WIND       PRES   REMARKS
MINNEAPOLIS    PTCLDY    50  40  68 W12       29.84S
INTNL FALLS    CLOUDY    47  44  90 NW9       29.70S
DULUTH         CLOUDY    49  45  86 NW17G24   29.67F
RED WING       CLEAR     50  39  66 W14       29.80F
REDWOOD FALLS  CLEAR     44  36  73 W9        29.93S
MANKATO        CLEAR     46  39  76 W13       29.91S
WORTHINGTON    CLEAR     42  37  82 W10       29.98S
FAIRMONT       CLEAR     46  38  73 W12       29.94S
$$

...SOUTHWEST WISCONSIN...


CITY           SKY/WX    TMP DP  RH WIND       PRES   REMARKS
LA CROSSE      SUNNY     53  40  61 W14       29.81R
PRAIRIE DU CHI SUNNY     49  37  61 W8        29.86S
BOSCOBEL       SUNNY     52  39  61 SW7       29.83S
LONE ROCK      NOT AVBL
PLATTEVILLE    SUNNY     48  41  75 W12       29.85S
FORT MC COY    SUNNY     49  40  72 W7        29.79R
MAUSTON-NEW LI SUNNY     49  40  70 W9        29.76S
VIROQUA        FAIR      47  37  68 W9        29.81R
WIS DELLS      NOT AVBL
$$

...ELSEWHERE IN WISCONSIN...


CITY           SKY/WX    TMP DP  RH WIND       PRES   REMARKS
MILWAUKEE      MOSUNNY   54  39  57 W14       29.75F
MADISON        MOSUNNY   52  38  58 VRB6      29.77S
GREEN BAY      CLOUDY    53  45  74 W13G22    29.65F
EAU CLAIRE     NOT AVBL
BLACK RVR FLS  CLOUDY    50  39  67 W8        29.76S
MEDFORD        LGT RAIN  47  46  95 W9G18     29.69S
WAUSAU         LGT RAIN  50  43  77 W12       29.67S
WIS RAPIDS     CLOUDY    51  43  74 W10       29.73S
MARSHFIELD     CLOUDY    51  41  68 W12       29.71R
RICE LAKE      NOT AVBL
$$

...NORTHEAST IOWA...


CITY           SKY/WX    TMP DP  RH WIND       PRES   REMARKS
WATERLOO       CLEAR     49  39  68 W7        29.92R
DUBUQUE        SUNNY     46  40  79 W10       29.88S
DECORAH        CLEAR     46  39  76 VRB5G12   29.86R
MASON CITY     CLEAR     45  39  79 W10       29.94S
CHARLES CITY   CLEAR     46  39  76 W9G16     29.91S
OELWEIN        CLEAR     45  41  87 W10       29.91S
$$

...ELSEWHERE IN IOWA...


CITY           SKY/WX    TMP DP  RH WIND       PRES   REMARKS
DES MOINES     PTCLDY    52  44  74 W5        29.99S
IOWA CITY      SUNNY     50  42  74 W8        29.95S
FORT DODGE     CLEAR     45  37  76 W3        29.98S
MARSHALLTOWN   CLEAR     46  41  82 W3        29.95R
CEDAR RAPIDS   SUNNY     47  43  86 W8        29.92S
$$

...NORTHERN ILLINOIS...


CITY           SKY/WX    TMP DP  RH WIND       PRES   REMARKS
CHICAGO-OHARE  MOSUNNY   53  40  61 W12       29.83F
CHICAGO-MIDWAY MOSUNNY   55  39  54 SW10      29.84F
MOLINE         SUNNY     52  44  74 W7        29.92S
ROCKFORD       MOSUNNY   51  41  68 W13       29.86S
PEORIA         SUNNY     52  47  83 W3        29.94S
$$

NOTE: "FAIR" INDICATES FEW OR NO CLOUDS BELOW 12,000 FEET WITH NO
SIGNIFICANT WEATHER AND/OR OBSTRUCTIONS TO VISIBILITY. WIND
SPEEDS ARE IN MILES-PER-HOUR.




USA.gov is the U.S. government's official web portal to all federal, state and local government web resources and services.